CAPE
0 0 0 0 0 0 0 0 13 8 44 23 20 198 898 816 578 405 249 198 184 203 223 406 386 649 215 201 1075 1340 1394 1424
0 0 0 0 0 0 0 12 13 43 34 52 25 523 1002 1095 854 872 932 932 1046 1226 1489 1687 1279 528 468 502 832 1452 1556 1505
0 0 0 0 0 0 2 6 14 12 60 81 27 647 1081 1174 1249 1237 1201 1289 1586 1682 1744 1957 1819 1592 1356 1332 1601 1905 2064 2179
0 0 0 0 0 0 0 0 22 85 101 248 296 881 1291 1286 1311 1339 1301 1239 1074 998 777 744 1420 1773 1785 1530 832 438 668 1445
0 4 0 0 0 0 0 2 78 102 117 443 244 415 1413 1244 1211 1022 779 341 24 9 38 17 0 0 0 0 0 0 0 0
0 78 13 0 0 2 42 108 173 103 123 355 276 324 1117 1296 1064 703 149 0 0 0 0 0 0 0 0 0 0 0 0 0
0 0 0 1 7 4 47 27 90 114 81 218 367 462 888 1213 789 205 0 0 0 0 0 0 0 0 0 0 0 0 0 0
0 0 0 3 0 0 0 0 0 40 81 208 516 547 943 1106 472 13 0 0 0 0 0 0 0 0 0 0 0 0 0 0
0 0 0 0 0 0 0 184 58 21 182 297 341 433 566 903 354 0 0 0 0 0 0 0 0 0 0 0 0 0 0 0
0 0 0 0 0 0 0 0 73 248 250 313 581 554 642 605 133 0 0 0 0 0 0 0 0 0 0 0 0 0 0 0
0 0 0 0 0 0 0 37 71 284 255 241 161 105 15 12 0 0 0 0 0 0 0 0 0 0 0 0 0 0 0 0
0 0 0 0 0 0 66 0 50 184 266 38 346 384 36 0 0 0 0 0 0 0 0 0 0 0 0 0 0 0 0 0
0 0 0 0 0 4 59 12 0 44 80 81 503 273 0 0 0 0 0 0 0 0 0 0 0 0 0 0 0 1 1 4
0 0 0 0 0 2 47 0 0 0 0 0 0 0 0 0 0 0 0 0 0 0 0 0 0 0 0 0 3 5 5 0
1 11 0 0 3 0 0 0 0 0 0 0 0 0 0 0 0 0 0 0 0 0 0 1 3 1 1 2 5 6 1 1
0 0 0 0 0 0 0 0 0 0 0 0 0 0 0 0 0 0 0 0 0 0 0 1 2 3 0 0 1 1 0 2
0 0 0 0 0 0 0 0 0 0 0 0 0 0 0 0 0 0 0 0 0 0 0 1 0 2 0 0 1 3 2 2
0 22 34 7 0 0 0 0 0 0 0 0 0 0 0 0 0 0 0 0 0 0 0 1 1 1 2 3 2 1 2 1
0 0 0 0 0 0 0 0 0 0 0 0 0 0 0 0 0 0 0 0 0 0 0 1 1 3 1 2 2 1 2 2
CIN
-0 -0 -0 -0 -0 -0 -0 -0 -66 -118 -146 -193 -181 -178 -147 -111 -74 -101 -114 -123 -122 -159 -170 -190 -201 -163 -167 -201 -133 -135 -135 -118
-0 -0 -0 -0 -0 -0 -0 -29 -44 -52 -93 -71 -140 -119 -135 -105 -91 -94 -121 -146 -144 -137 -137 -137 -148 -200 -205 -186 -150 -130 -135 -111
-0 -0 -0 -0 -0 -0 -4 -71 -43 -32 -16 -142 -159 -106 -126 -125 -140 -159 -151 -164 -163 -172 -147 -120 -152 -182 -210 -197 -154 -114 -86 -53
-0 -0 -0 -0 -0 -0 -0 -0 -105 -59 -15 -284 -226 -173 -124 -159 -202 -216 -208 -203 -220 -236 -235 -225 -153 -102 -100 -125 -171 -197 -161 -98
-0 -13 -0 -0 -0 -0 -10 -84 -42 -27 -25 -396 -374 -348 -213 -192 -223 -264 -289 -348 -341 -341 -374 -367 -0 -0 -0 -0 -0 -0 -0 -0
-0 -7 -75 -0 -0 -62 -23 -12 -21 -19 -8 -147 -343 -391 -288 -236 -252 -289 -423 -0 -0 -0 -0 -0 -0 -0 -0 -0 -0 -0 -0 -0
-0 -0 -0 -24 -78 -85 -35 -56 -21 -24 -62 -25 -181 -356 -327 -260 -317 -410 -18 -0 -0 -0 -0 -0 -0 -0 -0 -0 -0 -0 -0 -0
-0 -0 -0 -95 -0 -0 -0 -0 -0 -91 -69 -223 -327 -407 -308 -267 -344 -482 -0 -0 -0 -0 -0 -0 -0 -0 -0 -0 -0 -0 -0 -0
-0 -0 -0 -0 -0 -0 -0 -123 -113 -82 -79 -276 -294 -344 -340 -276 -334 -0 -0 -0 -0 -0 -0 -0 -0 -0 -0 -0 -0 -0 -0 -0
-0 -0 -0 -0 -0 -0 -0 -0 -223 -187 -228 -304 -314 -359 -313 -277 -346 -0 -0 -0 -0 -0 -0 -0 -0 -0 -0 -0 -0 -0 -0 -0
-0 -0 -0 -0 -0 -0 -0 -62 -245 -223 -308 -417 -504 -429 -86 -77 -52 -0 -0 -0 -0 -0 -0 -0 -0 -0 -0 -0 -0 -0 -0 -0
-0 -0 -0 -0 -0 -0 -170 -0 -276 -338 -316 -411 -329 -153 -60 -0 -0 -0 -0 -0 -0 -0 -0 -0 -0 -0 -0 -0 -0 -0 -0 -0
-0 -0 -0 -0 -0 -247 -39 -18 -0 -402 -386 -370 -190 -142 -0 -0 -0 -0 -0 -0 -0 -0 -0 -0 -0 -0 -0 -0 -0 -0 -0 -0
-0 -0 -0 -0 -0 -36 -119 -0 -0 -0 -0 -0 -0 -0 -0 -0 -0 -0 -0 -0 -0 -0 -0 -0 -0 -0 -0 -0 -0 -0 -0 -0
-7 -31 -0 -0 -17 -0 -0 -0 -0 -0 -0 -0 -0 -0 -0 -0 -0 -0 -0 -0 -0 -0 -0 -0 -0 -0 -0 -0 -0 -0 -0 -0
-0 -0 -0 -0 -0 -0 -0 -0 -0 -0 -0 -0 -0 -0 -0 -0 -0 -0 -0 -0 -0 -0 -0 -0 -0 -0 -0 -0 -0 -0 -0 -0
-0 -0 -0 -0 -0 -0 -0 -0 -0 -0 -0 -0 -0 -0 -0 -0 -0 -0 -0 -0 -0 -0 -0 -0 -0 -0 -0 -0 -0 -0 -0 -0
-1 -125 -131 -169 -0 -0 -0 -0 -0 -0 -0 -0 -0 -0 -0 -0 -0 -0 -0 -0 -0 -0 -0 -0 -0 -0 -0 -0 -0 -0 -0 -0
-0 -0 -0 -0 -0 -0 -0 -0 -0 -0 -0 -0 -0 -0 -0 -0 -0 -0 -0 -0 -0 -0 -0 -0 -0 -0 -0 -0 -0 -0 -0 -0
Wind_Speed
22 18 17 15 20 17 16 17 19 17 18 10 15 7 7 18 15 14 20 25 23 21 18 18 18 17 16 15 14 14 14 13
16 15 18 21 4 21 19 19 18 16 17 12 13 15 11 13 11 10 9 8 8 13 12 13 16 14 16 19 22 21 16 8
19 18 21 14 19 14 13 17 18 17 16 13 15 15 1 4 5 7 8 9 10 11 13 15 15 16 17 17 18 19 19 14
25 22 24 22 13 4 25 19 15 16 15 12 12 12 15 14 1 5 7 8 11 12 14 16 18 19 19 19 18 18 18 16
20 17 18 14 13 13 13 15 14 15 16 11 8 10 14 11 9 6 6 7 9 12 13 15 16 18 20 20 20 20 21 20
17 14 14 12 7 5 11 17 15 19 25 7 6 4 6 6 5 4 4 5 8 9 11 13 16 18 20 21 21 23 24 23
21 21 18 15 7 3 9 14 16 20 21 24 6 3 2 2 2 2 3 4 7 10 12 15 17 19 21 23 24 25 25 25
18 18 16 13 12 13 14 15 17 21 28 22 10 1 1 1 2 2 3 6 8 11 14 15 18 21 23 25 26 26 28 28
16 14 11 17 14 14 16 18 20 23 25 19 10 3 4 2 3 3 3 7 11 12 14 17 20 22 25 27 27 29 30 29
15 14 23 18 18 21 24 25 23 25 24 18 10 3 1 2 2 2 5 9 12 14 15 18 22 25 28 29 31 32 31 31
20 24 25 22 23 22 21 25 19 19 15 10 4 2 8 4 2 3 7 9 13 15 17 21 25 29 32 34 34 34 33 32
26 28 31 25 21 16 19 33 20 17 9 3 2 5 8 5 3 5 9 12 15 19 22 26 30 32 35 35 34 33 32 32
28 30 30 25 13 14 20 23 11 10 5 2 5 11 2 4 6 10 12 15 19 23 27 30 32 34 35 35 35 34 33 33
20 22 30 14 13 16 20 13 8 6 5 6 5 2 3 5 7 11 15 20 24 27 29 29 31 33 34 34 34 34 34 35
16 18 18 16 18 21 16 12 6 5 4 2 3 4 5 8 11 15 19 22 25 27 29 30 31 32 34 34 34 34 36 36
21 21 23 22 22 20 14 9 5 2 2 3 4 5 8 12 15 19 22 25 27 29 30 31 31 31 31 34 33 34 35 36
21 21 21 19 17 12 9 4 2 3 4 4 5 9 12 16 19 22 24 25 27 28 29 30 31 32 32 32 33 36 36 36
25 21 20 18 9 4 1 1 1 1 5 8 9 12 14 18 19 21 22 23 25 26 27 29 30 31 32 33 34 35 36 36
26 23 21 13 6 5 4 2 1 2 4 7 11 13 15 17 18 19 20 22 24 25 25 27 28 30 31 33 33 34 34 34
Wind_Direction
252 263 267 278 258 272 279 286 287 306 303 160 136 330 4 104 87 83 110 155 169 175 143 165 170 153 148 102 157 147 152 156
270 271 268 260 318 254 264 271 286 319 321 8 115 132 104 102 89 81 55 21 337 274 335 352 183 154 188 226 261 274 233 116
264 269 263 272 262 282 282 278 295 318 337 66 119 137 95 105 73 73 58 34 15 2 5 14 11 359 350 357 340 331 323 343
252 272 268 263 262 254 252 277 299 313 332 354 86 87 117 250 18 40 44 36 35 30 27 24 29 29 23 19 15 7 358 354
268 283 280 271 264 269 282 294 300 305 313 3 84 91 105 101 94 60 45 31 25 31 34 30 26 18 13 11 9 2 355 352
267 288 290 269 254 267 288 281 294 284 258 16 110 104 115 92 74 50 38 13 1 20 20 15 2 358 357 355 350 344 343 344
269 280 286 279 274 245 285 297 298 300 295 286 163 144 124 294 360 3 9 9 343 347 350 349 355 352 347 343 341 340 337 335
277 284 281 284 289 288 295 301 302 300 281 297 315 240 219 245 295 307 329 331 332 331 337 344 347 346 341 337 334 333 331 328
279 282 281 278 284 296 300 298 298 294 291 304 309 235 228 227 263 283 329 319 321 326 336 336 341 341 338 334 334 332 330 328
282 280 269 288 294 296 292 291 295 295 298 308 313 293 251 207 205 273 317 318 319 325 334 340 337 334 331 330 329 328 327 325
279 276 285 291 293 301 301 297 300 300 307 316 326 318 304 314 294 294 321 326 326 329 332 331 330 327 324 324 325 325 325 325
281 278 280 297 301 310 307 285 298 296 303 295 181 262 288 306 315 314 323 323 322 324 325 323 323 323 322 322 323 324 324 324
278 280 281 291 316 306 300 302 318 304 306 292 293 303 289 329 319 319 320 319 320 320 319 319 321 321 319 319 318 321 321 321
288 286 280 306 307 295 309 329 330 322 310 301 328 1 300 314 321 319 316 316 317 318 320 322 323 322 320 319 321 322 322 321
297 299 308 305 296 294 308 312 324 324 333 10 3 338 331 323 320 320 319 318 320 319 320 322 324 323 320 322 324 324 322 322
301 302 301 300 291 300 300 303 313 334 8 356 351 336 327 321 321 320 319 318 319 320 319 320 324 327 327 326 327 326 325 324
306 309 310 307 302 297 299 306 315 334 341 346 342 329 326 324 323 321 320 321 322 322 323 324 326 328 330 331 330 327 327 327
299 311 311 311 308 301 295 258 276 343 330 330 335 332 331 329 330 328 327 327 327 327 328 328 328 329 333 334 334 332 329 329
302 308 304 307 297 284 270 253 298 342 355 346 338 338 338 337 335 335 334 334 332 332 334 333 334 335 337 338 337 336 336 336